Time,TemperatureF,DewpointF,PressureIn,WindDirection,WindDirectionDegrees,WindSpeedMPH,WindSpeedGustMPH,Humidity,HourlyPrecipIn,Conditions,Clouds,dailyrainin,SolarRadiationWatts/m^2,SoftwareType,DateUTC
2013-01-26 00:02:00,34.0,-99.9,-100.00,SW,216,1.0,3.0,-999,0.00,,,-99.99,0.000000,,2013-01-26 07:02:00,
2013-01-26 00:12:00,34.0,-99.9,-100.00,South,184,0.0,3.0,-999,0.00,,,-99.99,0.000000,,2013-01-26 07:12:00,
2013-01-26 00:22:00,34.0,-99.9,-100.00,West,277,0.0,1.0,-999,0.00,,,-99.99,0.000000,,2013-01-26 07:22:00,
2013-01-26 00:33:00,34.0,-99.9,-100.00,NNW,335,0.0,2.0,-999,0.00,,,-99.99,0.000000,,2013-01-26 07:33:00,
2013-01-26 00:42:00,34.0,-99.9,-100.00,North,-999,-999.0,0.0,-999,0.00,,,-99.99,0.000000,,2013-01-26 07:42:00,
2013-01-26 00:52:00,34.0,-99.9,-100.00,North,-999,-999.0,0.0,-999,0.00,,,-99.99,0.000000,,2013-01-26 07:52:00,
2013-01-26 01:02:00,34.0,-99.9,-100.00,SSE,162,1.0,2.0,-999,0.00,,,-99.99,0.000000,,2013-01-26 08:02:00,
2013-01-26 01:11:00,34.0,-99.9,-100.00,ENE,73,1.0,2.0,-999,0.00,,,-99.99,0.000000,,2013-01-26 08:11:00,
2013-01-26 01:22:00,34.0,-99.9,-100.00,NE,47,0.0,2.0,-999,0.00,,,-99.99,0.000000,,2013-01-26 08:22:00,
2013-01-26 01:32:00,34.0,-99.9,-100.00,SW,215,1.0,2.0,-999,0.00,,,-99.99,0.000000,,2013-01-26 08:32:00,
2013-01-26 01:42:00,32.0,-99.9,-100.00,SE,130,2.0,3.0,-999,0.00,,,-99.99,0.000000,,2013-01-26 08:42:00,
2013-01-26 01:54:00,33.0,-99.9,-100.00,WSW,237,1.0,3.0,-999,0.00,,,-99.99,0.000000,,2013-01-26 08:54:00,
2013-01-26 02:02:00,33.0,-99.9,-100.00,SSW,192,1.0,2.0,-999,0.00,,,-99.99,0.000000,,2013-01-26 09:02:00,
2013-01-26 02:11:00,34.0,-99.9,-100.00,SSE,153,3.0,4.0,-999,0.00,,,-99.99,0.000000,,2013-01-26 09:11:00,
2013-01-26 02:22:00,34.0,-99.9,-100.00,South,172,1.0,3.0,-999,0.00,,,-99.99,0.000000,,2013-01-26 09:22:00,
2013-01-26 02:32:00,34.0,-99.9,-100.00,WSW,239,1.0,4.0,-999,0.00,,,-99.99,0.000000,,2013-01-26 09:32:00,
2013-01-26 02:42:00,34.0,-99.9,-100.00,ESE,102,1.0,2.0,-999,0.00,,,-99.99,0.000000,,2013-01-26 09:42:00,
2013-01-26 02:50:00,33.0,-99.9,-100.00,WNW,300,1.0,3.0,-999,0.00,,,-99.99,0.000000,,2013-01-26 09:50:00,
2013-01-26 02:52:00,34.0,-99.9,-100.00,ESE,102,1.0,2.0,-999,0.00,,,-99.99,0.000000,,2013-01-26 09:52:00,
2013-01-26 03:02:00,33.0,-99.9,-100.00,WNW,282,1.0,3.0,-999,0.00,,,-99.99,0.000000,,2013-01-26 10:02:00,
2013-01-26 03:12:00,33.0,-99.9,-100.00,WNW,300,1.0,3.0,-999,0.00,,,-99.99,0.000000,,2013-01-26 10:12:00,
2013-01-26 03:22:00,33.0,-99.9,-100.00,WNW,300,1.0,3.0,-999,0.00,,,-99.99,0.000000,,2013-01-26 10:22:00,
2013-01-26 03:32:00,33.0,-99.9,-100.00,WNW,300,1.0,3.0,-999,0.00,,,-99.99,0.000000,,2013-01-26 10:32:00,
2013-01-26 03:43:00,33.0,-99.9,-100.00,WNW,300,1.0,3.0,-999,0.00,,,-99.99,0.000000,,2013-01-26 10:43:00,
2013-01-26 04:22:00,30.0,-99.9,-100.00,West,271,0.0,2.0,-999,0.00,,,-99.99,0.000000,,2013-01-26 11:22:00,
2013-01-26 04:32:00,29.0,29.0,-100.00,SE,137,1.0,2.0,97,0.00,,,-99.99,0.000000,,2013-01-26 11:32:00,
2013-01-26 04:42:00,30.0,30.0,-100.00,South,173,2.0,3.0,97,0.00,,,-99.99,0.000000,,2013-01-26 11:42:00,
2013-01-26 04:52:00,30.0,30.0,-100.00,South,173,2.0,3.0,97,0.00,,,-99.99,0.000000,,2013-01-26 11:52:00,
2013-01-26 05:01:00,29.0,28.0,-100.00,NE,38,2.0,4.0,96,0.00,,,-99.99,0.000000,,2013-01-26 12:01:00,
2013-01-26 05:12:00,28.0,28.0,-100.00,SE,141,2.0,4.0,97,0.00,,,-99.99,0.000000,,2013-01-26 12:12:00,
2013-01-26 05:22:00,28.0,27.0,-100.00,SW,214,2.0,4.0,97,0.00,,,-99.99,0.000000,,2013-01-26 12:22:00,
2013-01-26 05:33:00,28.0,27.0,-100.00,WSW,243,2.0,4.0,97,0.00,,,-99.99,0.000000,,2013-01-26 12:33:00,
2013-01-26 05:42:00,29.0,29.0,-100.00,SSE,152,1.0,3.0,98,0.00,,,-99.99,0.000000,,2013-01-26 12:42:00,
2013-01-26 05:52:00,29.0,29.0,-100.00,SSE,152,1.0,3.0,98,0.00,,,-99.99,0.000000,,2013-01-26 12:52:00,
2013-01-26 06:02:00,31.0,31.0,-100.00,SE,144,3.0,5.0,98,0.00,,,-99.99,0.000000,,2013-01-26 13:02:00,
2013-01-26 06:12:00,31.0,30.0,-100.00,South,176,4.0,5.0,97,0.00,,,-99.99,0.000000,,2013-01-26 13:12:00,
2013-01-26 06:22:00,28.0,27.0,-100.00,SE,145,2.0,4.0,96,0.00,,,-99.99,0.000000,,2013-01-26 13:22:00,
2013-01-26 06:32:00,27.0,26.0,-100.00,WNW,293,2.0,4.0,96,0.00,,,-99.99,0.000000,,2013-01-26 13:32:00,
2013-01-26 06:42:00,26.0,26.0,-100.00,WSW,239,1.0,3.0,97,0.00,,,-99.99,0.000000,,2013-01-26 13:42:00,
2013-01-26 06:52:00,26.0,26.0,-100.00,WSW,239,1.0,3.0,97,0.00,,,-99.99,0.000000,,2013-01-26 13:52:00,
2013-01-26 07:02:00,26.0,26.0,-100.00,ESE,104,1.0,4.0,97,0.00,,,-99.99,0.000000,,2013-01-26 14:02:00,
2013-01-26 07:11:00,26.0,26.0,-100.00,South,185,2.0,3.0,97,0.00,,,-99.99,0.000000,,2013-01-26 14:11:00,
2013-01-26 07:21:00,27.0,27.0,-100.00,WSW,242,2.0,4.0,97,0.00,,,-99.99,0.000000,,2013-01-26 14:21:00,
2013-01-26 07:31:00,27.0,27.0,-100.00,WSW,242,2.0,4.0,97,0.00,,,-99.99,0.000000,,2013-01-26 14:31:00,
2013-01-26 07:42:00,28.0,27.0,-100.00,SE,127,2.0,4.0,97,0.00,,,-99.99,0.000000,,2013-01-26 14:42:00,
2013-01-26 07:50:00,28.0,27.0,-100.00,ESE,123,1.0,3.0,97,0.00,,,-99.99,4.000000,,2013-01-26 14:50:00,
2013-01-26 07:52:00,28.0,27.0,-100.00,SE,127,2.0,4.0,97,0.00,,,-99.99,0.000000,,2013-01-26 14:52:00,
2013-01-26 08:02:00,28.0,27.0,-100.00,South,185,1.0,3.0,97,0.00,,,-99.99,1.000000,,2013-01-26 15:02:00,
2013-01-26 08:12:00,28.0,27.0,-100.00,ESE,123,1.0,3.0,97,0.00,,,-99.99,4.000000,,2013-01-26 15:12:00,
2013-01-26 08:21:00,28.0,27.0,-100.00,ESE,123,1.0,3.0,97,0.00,,,-99.99,4.000000,,2013-01-26 15:21:00,
2013-01-26 08:32:00,28.0,27.0,-100.00,ESE,123,1.0,3.0,97,0.00,,,-99.99,4.000000,,2013-01-26 15:32:00,
2013-01-26 08:42:00,28.0,27.0,-100.00,ESE,123,1.0,3.0,97,0.00,,,-99.99,4.000000,,2013-01-26 15:42:00,
2013-01-26 09:22:00,30.0,29.0,-100.00,SW,221,0.0,2.0,97,0.00,,,-99.99,60.000000,,2013-01-26 16:22:00,
2013-01-26 09:33:00,30.0,29.0,-100.00,SE,124,1.0,4.0,97,0.00,,,-99.99,84.000000,,2013-01-26 16:33:00,
2013-01-26 09:43:00,31.0,30.0,-100.00,East,98,1.0,3.0,97,0.00,,,-99.99,106.000000,,2013-01-26 16:43:00,
2013-01-26 09:53:00,31.0,30.0,-100.00,East,98,1.0,3.0,97,0.00,,,-99.99,106.000000,,2013-01-26 16:53:00,
2013-01-26 10:02:00,30.0,29.0,-100.00,East,91,2.0,3.0,96,0.00,,,-99.99,118.000000,,2013-01-26 17:02:00,
2013-01-26 10:12:00,30.0,30.0,-100.00,SE,146,3.0,5.0,97,0.00,,,-99.99,120.000000,,2013-01-26 17:12:00,
2013-01-26 10:21:00,33.0,32.0,-100.00,SE,134,4.0,6.0,97,0.00,,,-99.99,126.000000,,2013-01-26 17:21:00,
2013-01-26 10:32:00,31.0,30.0,-100.00,SSW,210,3.0,6.0,95,0.00,,,-99.99,134.000000,,2013-01-26 17:32:00,
2013-01-26 10:41:00,32.0,30.0,-100.00,ENE,57,2.0,4.0,95,0.00,,,-99.99,191.000000,,2013-01-26 17:41:00,
2013-01-26 10:52:00,32.0,30.0,-100.00,ENE,57,2.0,4.0,95,0.00,,,-99.99,191.000000,,2013-01-26 17:52:00,
2013-01-26 11:02:00,32.0,30.0,-100.00,East,88,3.0,4.0,94,0.00,,,-99.99,167.000000,,2013-01-26 18:02:00,
2013-01-26 11:11:00,31.0,29.0,-100.00,SSE,162,2.0,4.0,93,0.00,,,-99.99,192.000000,,2013-01-26 18:11:00,
2013-01-26 11:21:00,32.0,32.0,-100.00,SSW,208,1.0,4.0,100,0.00,,,-99.99,199.000000,,2013-01-26 18:21:00,
2013-01-26 11:32:00,32.0,32.0,-100.00,SSW,208,1.0,4.0,100,0.00,,,-99.99,199.000000,,2013-01-26 18:32:00,
2013-01-26 11:41:00,34.0,34.0,-100.00,East,95,2.0,4.0,100,0.00,,,-99.99,245.000000,,2013-01-26 18:41:00,
2013-01-26 11:52:00,34.0,34.0,-100.00,East,95,2.0,4.0,100,0.00,,,-99.99,245.000000,,2013-01-26 18:52:00,
2013-01-26 12:02:00,36.0,36.0,-100.00,SE,130,1.0,3.0,137,0.00,,,-99.99,253.000000,,2013-01-26 19:02:00,
2013-01-26 12:11:00,33.0,33.0,-100.00,SSW,208,3.0,5.0,128,0.00,,,-99.99,228.000000,,2013-01-26 19:11:00,
2013-01-26 12:22:00,33.0,33.0,-100.00,WSW,242,1.0,3.0,131,0.00,,,-99.99,214.000000,,2013-01-26 19:22:00,
2013-01-26 12:32:00,34.0,34.0,-100.00,SSE,147,1.0,3.0,136,0.00,,,-99.99,200.000000,,2013-01-26 19:32:00,
2013-01-26 12:42:00,35.0,35.0,-100.00,East,89,2.0,4.0,135,0.00,,,-99.99,196.000000,,2013-01-26 19:42:00,
2013-01-26 12:50:00,35.0,35.0,-100.00,ESE,105,2.0,3.0,142,0.00,,,-99.99,188.000000,,2013-01-26 19:50:00,
2013-01-26 12:52:00,35.0,35.0,-100.00,East,89,2.0,4.0,135,0.00,,,-99.99,196.000000,,2013-01-26 19:52:00,
2013-01-26 13:02:00,34.0,34.0,-100.00,East,93,1.0,2.0,140,0.00,,,-99.99,197.000000,,2013-01-26 20:02:00,
2013-01-26 13:11:00,35.0,35.0,-100.00,ESE,105,2.0,3.0,142,0.00,,,-99.99,188.000000,,2013-01-26 20:11:00,
2013-01-26 13:21:00,35.0,35.0,-100.00,ESE,105,2.0,3.0,142,0.00,,,-99.99,188.000000,,2013-01-26 20:21:00,
2013-01-26 13:32:00,35.0,35.0,-100.00,ESE,105,2.0,3.0,142,0.00,,,-99.99,188.000000,,2013-01-26 20:32:00,
2013-01-26 13:41:00,35.0,35.0,-100.00,ESE,105,2.0,3.0,142,0.00,,,-99.99,188.000000,,2013-01-26 20:41:00,
2013-01-26 14:23:00,38.0,37.0,-100.00,North,-999,-999.0,0.0,96,0.00,,,-99.99,128.000000,,2013-01-26 21:23:00,
2013-01-26 14:32:00,38.0,37.0,-100.00,North,-999,-999.0,0.0,96,0.00,,,-99.99,128.000000,,2013-01-26 21:32:00,
2013-01-26 14:43:00,38.0,32.0,-100.00,East,93,0.0,2.0,81,0.00,,,-99.99,116.000000,,2013-01-26 21:43:00,
2013-01-26 14:52:00,38.0,32.0,-100.00,East,93,0.0,2.0,81,0.00,,,-99.99,116.000000,,2013-01-26 21:52:00,
2013-01-26 15:01:00,36.0,31.0,-100.00,NW,318,0.0,2.0,84,0.00,,,-99.99,113.000000,,2013-01-26 22:01:00,
2013-01-26 15:11:00,35.0,31.0,-100.00,North,-999,-999.0,0.0,85,0.00,,,-99.99,127.000000,,2013-01-26 22:11:00,
2013-01-26 15:21:00,35.0,31.0,-100.00,NW,319,0.0,2.0,87,0.00,,,-99.99,113.000000,,2013-01-26 22:21:00,
2013-01-26 15:31:00,35.0,31.0,-100.00,North,-999,-999.0,0.0,87,0.00,,,-99.99,101.000000,,2013-01-26 22:31:00,
2013-01-26 15:41:00,34.0,31.0,-100.00,SSW,206,1.0,3.0,88,0.00,,,-99.99,96.000000,,2013-01-26 22:41:00,
2013-01-26 15:51:00,34.0,31.0,-100.00,SSW,206,1.0,3.0,88,0.00,,,-99.99,96.000000,,2013-01-26 22:51:00,
2013-01-26 16:01:00,35.0,32.0,-100.00,SE,136,2.0,3.0,88,0.00,,,-99.99,61.000000,,2013-01-26 23:01:00,
2013-01-26 16:11:00,34.0,31.0,-100.00,North,-999,-999.0,0.0,88,0.00,,,-99.99,49.000000,,2013-01-26 23:11:00,
2013-01-26 16:21:00,34.0,31.0,-100.00,North,-999,-999.0,0.0,89,0.00,,,-99.99,44.000000,,2013-01-26 23:21:00,
2013-01-26 16:32:00,35.0,32.0,-100.00,North,-999,-999.0,0.0,89,0.00,,,-99.99,33.000000,,2013-01-26 23:32:00,
2013-01-26 16:41:00,35.0,32.0,-100.00,North,-999,-999.0,0.0,89,0.00,,,-99.99,27.000000,,2013-01-26 23:41:00,
2013-01-26 16:52:00,35.0,32.0,-100.00,North,-999,-999.0,0.0,89,0.00,,,-99.99,27.000000,,2013-01-26 23:52:00,
2013-01-26 17:01:00,34.0,32.0,-100.00,North,-999,-999.0,0.0,91,0.00,,,-99.99,19.000000,,2013-01-27 00:01:00,
2013-01-26 17:11:00,34.0,32.0,-100.00,North,-999,-999.0,0.0,91,0.00,,,-99.99,16.000000,,2013-01-27 00:11:00,
2013-01-26 17:21:00,34.0,31.0,-100.00,North,-999,-999.0,0.0,91,0.02,,,-99.99,11.000000,,2013-01-27 00:21:00,
2013-01-26 17:31:00,35.0,33.0,-100.00,SSE,160,0.0,2.0,93,0.02,,,-99.99,8.000000,,2013-01-27 00:31:00,
2013-01-26 17:41:00,34.0,32.0,-100.00,North,-999,-999.0,0.0,93,0.02,,,-99.99,5.000000,,2013-01-27 00:41:00,
2013-01-26 17:50:00,33.0,32.0,-100.00,North,-999,-999.0,0.0,94,0.02,,,-99.99,0.000000,,2013-01-27 00:50:00,
2013-01-26 17:51:00,34.0,32.0,-100.00,North,-999,-999.0,0.0,93,0.02,,,-99.99,5.000000,,2013-01-27 00:51:00,
2013-01-26 18:01:00,34.0,32.0,-100.00,North,-999,-999.0,0.0,94,0.02,,,-99.99,1.000000,,2013-01-27 01:01:00,
2013-01-26 18:11:00,33.0,32.0,-100.00,North,-999,-999.0,0.0,94,0.02,,,-99.99,0.000000,,2013-01-27 01:11:00,
2013-01-26 18:21:00,33.0,32.0,-100.00,North,-999,-999.0,0.0,94,0.02,,,-99.99,0.000000,,2013-01-27 01:21:00,
2013-01-26 18:32:00,33.0,32.0,-100.00,North,-999,-999.0,0.0,94,0.02,,,-99.99,0.000000,,2013-01-27 01:32:00,
2013-01-26 18:41:00,33.0,32.0,-100.00,North,-999,-999.0,0.0,94,0.02,,,-99.99,0.000000,,2013-01-27 01:41:00,
2013-01-26 19:22:00,34.0,33.0,-100.00,East,98,1.0,3.0,95,0.02,,,-99.99,0.000000,,2013-01-27 02:22:00,
2013-01-26 19:32:00,33.0,32.0,-100.00,SE,139,4.0,7.0,95,0.02,,,-99.99,0.000000,,2013-01-27 02:32:00,
2013-01-26 19:42:00,32.0,31.0,-100.00,WSW,250,3.0,6.0,96,0.02,,,-99.99,0.000000,,2013-01-27 02:42:00,
2013-01-26 19:52:00,32.0,31.0,-100.00,SSE,158,2.0,5.0,96,0.02,,,-99.99,0.000000,,2013-01-27 02:52:00,
2013-01-26 20:01:00,32.0,31.0,-100.00,SE,146,5.0,7.0,97,0.02,,,-99.99,0.000000,,2013-01-27 03:01:00,
2013-01-26 20:11:00,32.0,31.0,-100.00,SSE,147,6.0,8.0,97,0.02,,,-99.99,0.000000,,2013-01-27 03:11:00,
2013-01-26 20:21:00,32.0,32.0,-100.00,SSE,150,5.0,7.0,97,0.01,,,-99.99,0.000000,,2013-01-27 03:21:00,
2013-01-26 20:31:00,33.0,32.0,-100.00,SSW,211,2.0,4.0,97,0.01,,,-99.99,0.000000,,2013-01-27 03:31:00,
2013-01-26 20:41:00,33.0,32.0,-100.00,East,99,0.0,2.0,96,0.01,,,-99.99,0.000000,,2013-01-27 03:41:00,
2013-01-26 20:51:00,33.0,32.0,-100.00,ENE,69,2.0,3.0,97,0.01,,,-99.99,0.000000,,2013-01-27 03:51:00,
2013-01-26 21:01:00,33.0,32.0,-100.00,ESE,120,0.0,2.0,96,0.01,,,-99.99,0.000000,,2013-01-27 04:01:00,
2013-01-26 21:11:00,33.0,32.0,-100.00,SW,222,0.0,3.0,96,0.01,,,-99.99,0.000000,,2013-01-27 04:11:00,
2013-01-26 21:21:00,33.0,32.0,-100.00,ESE,121,1.0,3.0,96,0.01,,,-99.99,0.000000,,2013-01-27 04:21:00,
2013-01-26 21:31:00,33.0,32.0,-100.00,South,175,2.0,3.0,96,0.01,,,-99.99,0.000000,,2013-01-27 04:31:00,
2013-01-26 21:41:00,32.0,31.0,-100.00,WNW,287,3.0,4.0,96,0.01,,,-99.99,0.000000,,2013-01-27 04:41:00,
2013-01-26 21:51:00,32.0,31.0,-100.00,SW,218,2.0,3.0,96,0.01,,,-99.99,0.000000,,2013-01-27 04:51:00,
2013-01-26 22:03:00,32.0,31.0,-100.00,East,91,1.0,4.0,96,0.01,,,-99.99,0.000000,,2013-01-27 05:03:00,
2013-01-26 22:11:00,33.0,32.0,-100.00,SE,132,3.0,4.0,97,0.01,,,-99.99,0.000000,,2013-01-27 05:11:00,
2013-01-26 22:22:00,33.0,32.0,-100.00,SE,141,1.0,3.0,97,0.00,,,-99.99,0.000000,,2013-01-27 05:22:00,
2013-01-26 22:31:00,33.0,32.0,-100.00,SSE,147,3.0,4.0,96,0.00,,,-99.99,0.000000,,2013-01-27 05:31:00,
2013-01-26 22:41:00,34.0,32.0,-100.00,SSW,198,2.0,4.0,96,0.00,,,-99.99,0.000000,,2013-01-27 05:41:00,
2013-01-26 22:50:00,34.0,33.0,-100.00,SSE,152,2.0,3.0,96,0.00,,,-99.99,0.000000,,2013-01-27 05:50:00,
2013-01-26 22:51:00,33.0,32.0,-100.00,SSE,157,1.0,3.0,96,0.00,,,-99.99,0.000000,,2013-01-27 05:51:00,
2013-01-26 23:01:00,34.0,33.0,-100.00,SSE,151,3.0,4.0,96,0.00,,,-99.99,0.000000,,2013-01-27 06:01:00,
2013-01-26 23:11:00,34.0,33.0,-100.00,SSE,152,2.0,3.0,96,0.00,,,-99.99,0.000000,,2013-01-27 06:11:00,
2013-01-26 23:21:00,34.0,33.0,-100.00,SSE,152,2.0,3.0,96,0.00,,,-99.99,0.000000,,2013-01-27 06:21:00,
2013-01-26 23:31:00,34.0,33.0,-100.00,SSE,152,2.0,3.0,96,0.00,,,-99.99,0.000000,,2013-01-27 06:31:00,
2013-01-26 23:41:00,34.0,33.0,-100.00,SSE,152,2.0,3.0,96,0.00,,,-99.99,0.000000,,2013-01-27 06:41:00,